STARLINK-34209

Satellite information

Favourite Embed

Satellite Type and Status

PAYLOADIN ORBIT

Key statistics

Satellite STARLINK-34209 at a glance.

Uptime

200

Days in orbit

Revolutions

≈ 15.1

Per day

Orbit

SSO

Sun Synchronous Orbit

Inclination

97.6

Latest

Satellite identification and parameters

Extended collection of information and parameters for STARLINK-34209.

Object identification

Identified? True

Debris? False

Object name: STARLINK-34209

International designator: 2025-112E

Object number (NORAD): 64150

Object ID (CCSDS): 64150

Country: UNITED STATES OF AMERICA (US)

Current information (Y/N): Y

RCS size: LARGE

Orbital parameters

Period: 95.639 minutes

Inclination: 97.6036 deg

SMA: 6927.62 km

Apoapsis: 550.128 km

Periapsis: 548.842 km

RAAN: 35.2357 deg

Eccentricy: 0.00009285

Argument of periapsis: 163.5997 deg

Mean anomaly: 196.526 deg

Mean motion: 15.05659223 rev/day

Mean motion (dot): 0.00006431 rev/day2

B* drag term: 0.00044938914 1/REarth

Two-line elements (TLE)

Creation date: Dec. 12, 2025, 10:14 a.m.

Reference frame: TEME

Reference center: EARTH

Epoch: Dec. 12, 2025, 2:38 a.m. UTC

TLE line 0: 0 STARLINK-34209

TLE line 1: 1 64150U 25112E 25346.11001137 .00006431 00000-0 44939-3 0 9997

TLE line 2: 2 64150 97.6036 35.2357 0000929 163.5997 196.5260 15.05659223 30138

Live tracking on map

Real-time ground track for satellite STARLINK-34209.

In-orbit conjunctions

There are no conjunctions computed for STARLINK-34209, at the moment. Check back to stay up to date, as we update our databases every day.

Go to all conjunctions

Associated space launch

A batch of 24 satellites for the Starlink mega-constellation - SpaceX's project for space-based Internet communication system.

STARLINK-34209 was lifted into orbit during the mission ‘Falcon 9 Block 5 | Starlink Group 17-1’, on board a Falcon 9 space rocket.

The launch took place on May 27, 2025, 4:57 p.m. from Space Launch Complex 4E.

For more information about the launch, click the button.

Launch to space Falcon 9 Block 5 | Starlink Group 17-1
Falcon 9 Block 5 | Starlink Group 17-1

Agency: SpaceX

Status: Launch Successful

Launch date: May 27, 2025, 4:57 p.m. UTC

Rocket: Falcon 9

Launch pad: Space Launch Complex 4E

Location: Vandenberg SFB, CA, USA

...

Latest news about this satellite

News about space launch
Live coverage: SpaceX to launch 24 Starlink satellites to polar orbit from California

The mission will be SpaceX’s 480th Falcon 9 rocket launch to date. Launch teams are targeting a liftoff from Space Launch Complex 4 East at 9:14 a.m. PDT (12:14 p.m. EDT, 1614 UTC).

News about space launch
Launch Roundup: SpaceX to start new Starlink shell; China, Russia to launch unknown payloads

This week, SpaceX will begin building a new shell for its Starlink constellation, launching from… The post Launch Roundup: SpaceX to start new Starlink shell; China, Russia to launch unknown payloads appeared first on NASASpaceFlight.com.


Newsletter sign-up

Weekly statistics, charts and insights to help you stay on top of the space industry.